When you browse on this site, cookies collect data to enhance your experience and personalize the content and advertising you see.
Visit our Privacy Policy to learn more. By continuing to use the site, you agree to this use of cookies and data.
  • In Romania
  • List of Countries
  • For 7 days
  • Water Temperature
  • Weather Map
  • Weather Widgets
  • user-avatar
    Login

    Hourly Weather Tiba

    Today, 20 January, Monday

    Time Temperature Precipitation Wind Pressure Humidity
    00:00 +8°C° 0 mm 3 mps 758 mmHg 59%
    01:00 +8°C° 0 mm 3 mps 758 mmHg 60%
    02:00 +7°C° 0 mm 2 mps 758 mmHg 61%
    03:00 +7°C° 0 mm 3 mps 758 mmHg 62%
    04:00 +7°C° 0 mm 3 mps 758 mmHg 59%
    05:00 +6°C° 0 mm 2 mps 758 mmHg 57%
    06:00 +6°C° 0 mm 2 mps 758 mmHg 54%
    07:00 +6°C° 0 mm 2 mps 758 mmHg 51%
    08:00 +7°C° 0 mm 2 mps 758 mmHg 47%
    09:00 +8°C° 0 mm 2 mps 758 mmHg 43%
    10:00 +9°C° 0 mm 2 mps 758 mmHg 39%
    11:00 +10°C° 0 mm 2 mps 758 mmHg 35%
    12:00 +13°C° 0 mm 2 mps 758 mmHg 31%
    13:00 +13°C° 0 mm 2 mps 757 mmHg 30%
    14:00 +13°C° 0 mm 2 mps 757 mmHg 29%
    15:00 +14°C° 0 mm 2 mps 757 mmHg 28%
    16:00 +13°C° 0 mm 1 mps 757 mmHg 32%
    17:00 +12°C° 0 mm 1 mps 758 mmHg 36%
    18:00 +11°C° 0 mm 1 mps 758 mmHg 40%
    19:00 +11°C° 0 mm 1 mps 758 mmHg 42%
    20:00 +10°C° 0 mm 1 mps 758 mmHg 44%
    21:00 +10°C° 0 mm 1 mps 758 mmHg 45%
    22:00 +10°C° 0 mm 1 mps 758 mmHg 48%
    23:00 +8°C° 0 mm 2 mps 758 mmHg 50%

    Tomorrow, 21 January, Tuesday

    Time Temperature Precipitation Wind Pressure Humidity
    00:00 +8°C° 0 mm 2 mps 758 mmHg 52%
    01:00 +8°C° 0 mm 2 mps 758 mmHg 55%
    02:00 +7°C° 0 mm 2 mps 758 mmHg 58%
    03:00 +7°C° 0 mm 3 mps 758 mmHg 60%
    04:00 +7°C° 0 mm 3 mps 759 mmHg 57%
    05:00 +6°C° 0 mm 4 mps 759 mmHg 53%
    06:00 +6°C° 0 mm 4 mps 760 mmHg 49%
    07:00 +6°C° 0 mm 5 mps 761 mmHg 46%
    08:00 +5°C° 0 mm 6 mps 762 mmHg 42%
    09:00 +7°C° 0 mm 6 mps 763 mmHg 38%
    10:00 +8°C° 0 mm 7 mps 763 mmHg 35%
    11:00 +8°C° 0 mm 7 mps 764 mmHg 31%
    12:00 +9°C° 0 mm 8 mps 764 mmHg 27%
    13:00 +9°C° 0 mm 7 mps 765 mmHg 25%
    14:00 +9°C° 0 mm 7 mps 765 mmHg 24%
    15:00 +9°C° 0 mm 7 mps 766 mmHg 23%
    16:00 +8°C° 0 mm 6 mps 766 mmHg 24%
    17:00 +8°C° 0 mm 5 mps 767 mmHg 25%
    18:00 +7°C° 0 mm 4 mps 768 mmHg 26%
    19:00 +6°C° 0 mm 4 mps 769 mmHg 28%
    20:00 +7°C° 0 mm 3 mps 769 mmHg 31%
    21:00 +6°C° 0 mm 2 mps 770 mmHg 33%
    22:00 +6°C° 0 mm 2 mps 770 mmHg 34%
    23:00 +7°C° 0 mm 1 mps 771 mmHg 35%

    Day after tomorrow, 22 January, Wednesday

    Time Temperature Precipitation Wind Pressure Humidity
    00:00 +6°C° 0 mm 1 mps 771 mmHg 35%
    01:00 +6°C° 0 mm 1 mps 771 mmHg 36%
    02:00 +5°C° 0 mm 2 mps 771 mmHg 37%
    03:00 +5°C° 0 mm 2 mps 771 mmHg 38%
    04:00 +5°C° 0 mm 2 mps 771 mmHg 39%
    05:00 +4°C° 0 mm 2 mps 772 mmHg 41%
    06:00 +4°C° 0 mm 2 mps 772 mmHg 42%
    07:00 +6°C° 0 mm 1 mps 772 mmHg 43%
    08:00 +6°C° 0 mm 1 mps 772 mmHg 44%
    09:00 +7°C° 0 mm 1 mps 772 mmHg 44%
    10:00 +7°C° 0 mm 1 mps 771 mmHg 46%
    11:00 +8°C° 0 mm 1 mps 771 mmHg 48%
    12:00 +8°C° 0 mm 1 mps 770 mmHg 50%
    13:00 +8°C° 0 mm 1 mps 769 mmHg 52%
    14:00 +8°C° 0 mm 0 mps 769 mmHg 54%
    15:00 +8°C° 0 mm 0 mps 768 mmHg 56%
    16:00 +8°C° 0 mm 0 mps 768 mmHg 59%
    17:00 +9°C° 0 mm 1 mps 768 mmHg 63%
    18:00 +9°C° 0 mm 1 mps 769 mmHg 66%
    19:00 +9°C° 0 mm 1 mps 768 mmHg 64%
    20:00 +9°C° 0 mm 1 mps 768 mmHg 62%
    21:00 +8°C° 0 mm 2 mps 768 mmHg 61%
    22:00 +7°C° 0 mm 2 mps 768 mmHg 60%
    23:00 +8°C° 0 mm 1 mps 768 mmHg 59%

    23 January, Thursday

    Time Temperature Precipitation Wind Pressure Humidity
    00:00 +8°C° 0 mm 1 mps 768 mmHg 58%
    01:00 +8°C° 0 mm 1 mps 768 mmHg 55%
    02:00 +8°C° 0 mm 1 mps 767 mmHg 53%
    03:00 +6°C° 0 mm 2 mps 767 mmHg 51%
    04:00 +7°C° 0 mm 1 mps 767 mmHg 50%
    05:00 +7°C° 0 mm 1 mps 767 mmHg 49%
    06:00 +7°C° 0 mm 1 mps 767 mmHg 48%
    07:00 +7°C° 0 mm 2 mps 767 mmHg 47%
    08:00 +7°C° 0 mm 2 mps 767 mmHg 46%
    09:00 +8°C° 0 mm 2 mps 767 mmHg 44%
    10:00 +9°C° 0 mm 2 mps 767 mmHg 41%
    11:00 +12°C° 0 mm 2 mps 766 mmHg 37%
    12:00 +13°C° 0 mm 2 mps 766 mmHg 33%
    13:00 +13°C° 0 mm 1 mps 765 mmHg 33%
    14:00 +14°C° 0 mm 1 mps 765 mmHg 32%
    15:00 +13°C° 0 mm 0 mps 765 mmHg 31%
    16:00 +13°C° 0 mm 0 mps 765 mmHg 33%
    17:00 +13°C° 0 mm 0 mps 765 mmHg 35%
    18:00 +12°C° 0 mm 0 mps 765 mmHg 37%
    19:00 +12°C° 0.2 mm 0 mps 765 mmHg 43%
    20:00 +12°C° 0.2 mm 1 mps 765 mmHg 48%
    21:00 +12°C° 0.2 mm 1 mps 765 mmHg 53%
    22:00 +10°C° 0.5 mm 2 mps 764 mmHg 58%
    23:00 +9°C° 0.5 mm 2 mps 764 mmHg 63%

    24 January, Friday

    Time Temperature Precipitation Wind Pressure Humidity
    00:00 +9°C° 0.5 mm 3 mps 763 mmHg 68%
    01:00 +9°C° 0.2 mm 3 mps 763 mmHg 68%
    02:00 +9°C° 0.2 mm 3 mps 763 mmHg 69%
    03:00 +9°C° 0.2 mm 3 mps 763 mmHg 69%
    04:00 +9°C° 0 mm 3 mps 763 mmHg 71%
    05:00 +9°C° 0 mm 3 mps 764 mmHg 72%
    06:00 +10°C° 0 mm 3 mps 764 mmHg 74%
    07:00 +10°C° 0 mm 3 mps 764 mmHg 75%
    08:00 +10°C° 0 mm 4 mps 765 mmHg 77%
    09:00 +10°C° 0 mm 4 mps 765 mmHg 79%
    10:00 +10°C° 0 mm 4 mps 765 mmHg 77%
    11:00 +11°C° 0 mm 4 mps 765 mmHg 75%
    12:00 +10°C° 0 mm 5 mps 765 mmHg 74%
    13:00 +10°C° 0 mm 5 mps 765 mmHg 72%
    14:00 +9°C° 0 mm 5 mps 765 mmHg 71%
    15:00 +9°C° 0 mm 5 mps 766 mmHg 70%
    16:00 +9°C° 0 mm 5 mps 766 mmHg 69%
    17:00 +10°C° 0 mm 4 mps 767 mmHg 68%
    18:00 +10°C° 0 mm 4 mps 767 mmHg 67%
    19:00 +10°C° 0 mm 4 mps 768 mmHg 66%
    20:00 +10°C° 0 mm 4 mps 768 mmHg 64%
    21:00 +10°C° 0 mm 4 mps 768 mmHg 63%
    22:00 +10°C° 0 mm 4 mps 768 mmHg 63%
    23:00 +10°C° 0 mm 4 mps 768 mmHg 63%

    25 January, Saturday

    Time Temperature Precipitation Wind Pressure Humidity
    00:00 +9°C° 0 mm 3 mps 768 mmHg 63%
    01:00 +9°C° 0 mm 3 mps 768 mmHg 63%
    02:00 +9°C° 0 mm 3 mps 768 mmHg 64%
    03:00 +9°C° 0 mm 3 mps 768 mmHg 65%
    04:00 +9°C° 0 mm 3 mps 769 mmHg 65%
    05:00 +9°C° 0 mm 3 mps 769 mmHg 66%
    06:00 +8°C° 0 mm 4 mps 769 mmHg 66%
    07:00 +8°C° 0 mm 4 mps 769 mmHg 67%
    08:00 +8°C° 0 mm 4 mps 769 mmHg 68%
    09:00 +8°C° 0 mm 4 mps 770 mmHg 69%
    10:00 +8°C° 0.1 mm 4 mps 769 mmHg 71%
    11:00 +8°C° 0.1 mm 4 mps 769 mmHg 72%
    12:00 +8°C° 0.1 mm 4 mps 768 mmHg 73%
    13:00 +7°C° 0.5 mm 4 mps 768 mmHg 76%
    14:00 +7°C° 0.5 mm 4 mps 767 mmHg 78%
    15:00 +7°C° 0.5 mm 4 mps 767 mmHg 81%
    16:00 +7°C° 1.3 mm 4 mps 767 mmHg 82%
    17:00 +7°C° 1.3 mm 4 mps 767 mmHg 83%
    18:00 +7°C° 1.3 mm 4 mps 767 mmHg 85%
    19:00 +7°C° 1.1 mm 4 mps 767 mmHg 85%
    20:00 +7°C° 1.1 mm 4 mps 767 mmHg 85%
    21:00 +7°C° 1.1 mm 5 mps 767 mmHg 86%
    22:00 +7°C° 1 mm 4 mps 767 mmHg 86%
    23:00 +7°C° 1 mm 4 mps 766 mmHg 86%
    Show more